| time (UTC) | temp F | wind direction | speed MPH | gust MPH | rain 1hr in | rain 24hr in | rain mn in | humidity % | barometer mb |
| 20260505125004 | 56 | 190 | 2.0 | 5.0 | 0.00 | 0.85 | 0.85 | 90 | 1007.6 |
| 20260505124025 | 56 | 189 | 2.0 | 5.0 | 0.00 | 0.85 | 0.85 | 90 | 1007.6 |
| 20260505123004 | 56 | 197 | 2.0 | 5.0 | 0.00 | 0.85 | 0.85 | 90 | 1007.6 |
| 20260505122004 | 56 | 176 | 2.0 | 5.0 | 0.00 | 0.85 | 0.85 | 90 | 1007.5 |
| 20260505121004 | 56 | 175 | 2.0 | 8.0 | 0.00 | 0.85 | 0.85 | 90 | 1007.5 |
| 20260505120005 | 56 | 174 | 2.0 | 7.0 | 0.00 | 0.85 | 0.85 | 90 | 1007.5 |
| 20260505115004 | 56 | 177 | 2.0 | 5.0 | 0.00 | 0.85 | 0.85 | 90 | 1007.4 |
| 20260505114004 | 55 | 170 | 2.0 | 5.0 | 0.00 | 0.85 | 0.85 | 90 | 1007.0 |
| 20260505113004 | 55 | 195 | 2.0 | 4.0 | 0.00 | 0.85 | 0.85 | 90 | 1006.9 |
| 20260505112025 | 55 | 208 | 2.0 | 6.0 | 0.00 | 0.85 | 0.85 | 90 | 1006.7 |
| 20260505111004 | 55 | 179 | 3.0 | 9.0 | 0.00 | 0.85 | 0.85 | 90 | 1006.6 |
| 20260505102004 | 55 | 165 | 4.0 | 8.0 | 0.00 | 0.85 | 0.85 | 90 | 1006.5 |
| 20260505101004 | 55 | 172 | 4.0 | 9.0 | 0.00 | 0.85 | 0.85 | 90 | 1006.5 |
| 20260505100004 | 55 | 169 | 4.0 | 10.0 | 0.00 | 0.85 | 0.85 | 90 | 1006.3 |
| 20260505095004 | 55 | 163 | 4.0 | 11.0 | 0.00 | 0.85 | 0.85 | 90 | 1005.9 |
| 20260505094004 | 55 | 142 | 4.0 | 10.0 | 0.00 | 0.85 | 0.85 | 90 | 1005.8 |
| 20260505093004 | 55 | 172 | 3.0 | 8.0 | 0.00 | 0.85 | 0.85 | 90 | 1006.1 |
| 20260505092004 | 55 | 172 | 3.0 | 8.0 | 0.00 | 0.85 | 0.85 | 90 | 1005.8 |
| 20260505091025 | 55 | 163 | 5.0 | 11.0 | 0.05 | 0.85 | 0.85 | 90 | 1005.7 |
| 20260505090004 | 55 | 154 | 7.0 | 13.0 | 0.10 | 0.85 | 0.85 | 90 | 1005.4 |
| 20260505085004 | 55 | 155 | 6.0 | 11.0 | 0.16 | 0.85 | 0.85 | 90 | 1005.3 |
| 20260505084004 | 55 | 150 | 7.0 | 12.0 | 0.20 | 0.85 | 0.85 | 90 | 1004.7 |
| 20260505083004 | 55 | 148 | 7.0 | 18.0 | 0.26 | 0.85 | 0.85 | 90 | 1004.8 |
| 20260505082004 | 55 | 128 | 9.0 | 16.0 | 0.30 | 0.85 | 0.85 | 91 | 1004.0 |
| 20260505081004 | 55 | 148 | 6.0 | 11.0 | 0.29 | 0.80 | 0.80 | 91 | 1006.0 |
| 20260505080004 | 55 | 159 | 3.0 | 7.0 | 0.30 | 0.75 | 0.75 | 91 | 1006.8 |
| 20260505075004 | 55 | 160 | 2.0 | 5.0 | 0.27 | 0.69 | 0.69 | 91 | 1007.1 |
| 20260505074004 | 55 | 232 | 0.0 | 2.0 | 0.25 | 0.65 | 0.65 | 90 | 1007.2 |
| 20260505073004 | 55 | 159 | 1.0 | 2.0 | 0.20 | 0.59 | 0.59 | 90 | 1007.6 |
| 20260505072004 | 56 | 181 | 1.0 | 4.0 | 0.16 | 0.55 | 0.55 | 90 | 1007.6 |
| 20260505071004 | 55 | 210 | 2.0 | 3.0 | 0.15 | 0.51 | 0.51 | 90 | 1007.7 |
| 20260505070004 | 55 | 172 | 0.0 | 1.0 | 0.13 | 0.45 | 0.45 | 90 | 1007.2 |
| 20260505065004 | 55 | 143 | 0.0 | 2.0 | 0.14 | 0.42 | 0.42 | 89 | 1006.9 |
| 20260505064004 | 56 | 143 | 0.0 | 1.0 | 0.15 | 0.40 | 0.40 | 89 | 1006.8 |
| 20260505063025 | 56 | 106 | 1.0 | 2.0 | 0.18 | 0.39 | 0.39 | 88 | 1006.7 |
| 20260505062025 | 56 | 32 | 1.0 | 3.0 | 0.20 | 0.39 | 0.39 | 88 | 1006.5 |
| 20260505061004 | 56 | 337 | 0.0 | 2.0 | 0.19 | 0.36 | 0.36 | 87 | 1007.1 |
| 20260505060004 | 56 | 352 | 1.0 | 4.0 | 0.32 | 0.32 | 0.32 | 86 | 1007.5 |
| 20260505055004 | 56 | 352 | 2.0 | 8.0 | 0.28 | 0.28 | 0.28 | 84 | 1007.4 |
| 20260505054004 | 57 | 347 | 3.0 | 10.0 | 0.25 | 0.25 | 0.25 | 83 | 1007.4 |
| 20260505053004 | 58 | 350 | 6.0 | 11.0 | 0.21 | 0.21 | 0.21 | 83 | 1007.3 |
| 20260505052025 | 58 | 292 | 3.0 | 11.0 | 0.19 | 0.19 | 0.19 | 82 | 1006.7 |
| 20260505051004 | 62 | 244 | 9.0 | 29.0 | 0.17 | 0.17 | 0.17 | 73 | 1006.2 |
| 20260505041004 | 68 | 193 | 5.0 | 13.0 | 0.00 | 0.00 | 0.00 | 52 | 1003.3 |
| 20260505040005 | 68 | 178 | 5.0 | 14.0 | 0.00 | 0.00 | 0.00 | 52 | 1003.2 |
| 20260505035025 | 68 | 181 | 5.0 | 15.0 | 0.00 | 0.00 | 0.00 | 52 | 1003.2 |
| 20260505034004 | 68 | 178 | 5.0 | 12.0 | 0.00 | 0.00 | 0.00 | 52 | 1003.3 |
| 20260505033004 | 68 | 178 | 5.0 | 17.0 | 0.00 | 0.00 | 0.00 | 53 | 1003.3 |
| 20260505032025 | 68 | 165 | 6.0 | 14.0 | 0.00 | 0.00 | 0.00 | 52 | 1003.4 |
| 20260505031025 | 68 | 169 | 5.0 | 14.0 | 0.00 | 0.00 | 0.00 | 53 | 1003.5 |
| 20260505030004 | 68 | 172 | 4.0 | 12.0 | 0.00 | 0.00 | 0.00 | 53 | 1003.6 |
| 20260505025025 | 69 | 165 | 6.0 | 16.0 | 0.00 | 0.00 | 0.00 | 53 | 1003.6 |
| 20260505024004 | 69 | 171 | 4.0 | 8.0 | 0.00 | 0.00 | 0.00 | 53 | 1003.7 |
| 20260505023004 | 69 | 180 | 5.0 | 12.0 | 0.00 | 0.00 | 0.00 | 53 | 1003.6 |
| 20260505022004 | 69 | 195 | 5.0 | 12.0 | 0.00 | 0.00 | 0.00 | 53 | 1003.7 |
| 20260505021004 | 69 | 179 | 4.0 | 10.0 | 0.00 | 0.00 | 0.00 | 53 | 1003.9 |
| 20260505020004 | 69 | 181 | 5.0 | 12.0 | 0.00 | 0.00 | 0.00 | 53 | 1003.6 |
| 20260505015004 | 70 | 172 | 4.0 | 11.0 | 0.00 | 0.00 | 0.00 | 53 | 1003.6 |
| 20260505014003 | 70 | 191 | 4.0 | 15.0 | 0.00 | 0.00 | 0.00 | 53 | 1003.4 |
| 20260505013003 | 70 | 179 | 4.0 | 10.0 | 0.00 | 0.00 | 0.00 | 52 | 1003.3 |
| 20260505012004 | 70 | 189 | 4.0 | 12.0 | 0.00 | 0.00 | 0.00 | 53 | 1003.0 |
| 20260505011025 | 70 | 178 | 5.0 | 12.0 | 0.00 | 0.00 | 0.00 | 52 | 1002.8 |
| 20260505010004 | 70 | 186 | 4.0 | 15.0 | 0.00 | 0.00 | 0.00 | 52 | 1002.6 |
| 20260505005004 | 70 | 175 | 5.0 | 17.0 | 0.00 | 0.00 | 0.00 | 51 | 1002.3 |
| 20260505004004 | 70 | 174 | 5.0 | 12.0 | 0.00 | 0.00 | 0.00 | 51 | 1002.4 |
| 20260505003025 | 71 | 175 | 6.0 | 15.0 | 0.00 | 0.00 | 0.00 | 51 | 1002.2 |
| 20260505002004 | 71 | 182 | 6.0 | 15.0 | 0.00 | 0.00 | 0.00 | 50 | 1002.2 |
| 20260505001004 | 72 | 178 | 6.0 | 13.0 | 0.00 | 0.00 | 0.00 | 49 | 1002.1 |
| 20260505000004 | 72 | 188 | 5.0 | 22.0 | 0.00 | 0.00 | 0.00 | 49 | 1002.2 |
| 20260504235004 | 72 | 192 | 8.0 | 22.0 | 0.00 | 0.00 | 0.00 | 47 | 1002.4 |
| 20260504234004 | 73 | 195 | 8.0 | 19.0 | 0.00 | 0.00 | 0.00 | 46 | 1002.6 |
| 20260504233004 | 73 | 205 | 9.0 | 19.0 | 0.00 | 0.00 | 0.00 | 45 | 1002.8 |
| 20260504232004 | 74 | 188 | 7.0 | 15.0 | 0.00 | 0.00 | 0.00 | 45 | 1002.9 |
| 20260504231004 | 74 | 196 | 10.0 | 22.0 | 0.00 | 0.00 | 0.00 | 44 | 1003.1 |
| 20260504230004 | 74 | 195 | 8.0 | 22.0 | 0.00 | 0.00 | 0.00 | 45 | 1003.3 |
| 20260504225004 | 74 | 196 | 8.0 | 16.0 | 0.00 | 0.00 | 0.00 | 47 | 1003.5 |
| 20260504224004 | 74 | 201 | 7.0 | 19.0 | 0.00 | 0.00 | 0.00 | 46 | 1003.6 |
| 20260504223004 | 73 | 185 | 8.0 | 23.0 | 0.00 | 0.00 | 0.00 | 52 | 1003.6 |
| 20260504222025 | 73 | 156 | 7.0 | 23.0 | 0.00 | 0.00 | 0.00 | 55 | 1003.5 |
| 20260504221004 | 73 | 187 | 7.0 | 14.0 | 0.00 | 0.00 | 0.00 | 57 | 1003.6 |
| 20260504220025 | 73 | 176 | 6.0 | 20.0 | 0.00 | 0.00 | 0.00 | 59 | 1003.9 |
| 20260504215004 | 71 | 166 | 6.0 | 15.0 | 0.00 | 0.00 | 0.00 | 60 | 1004.1 |
| 20260504214004 | 70 | 158 | 6.0 | 12.0 | 0.00 | 0.00 | 0.00 | 60 | 1003.9 |
| 20260504213004 | 71 | 167 | 8.0 | 19.0 | 0.00 | 0.00 | 0.00 | 60 | 1004.0 |
| 20260504212004 | 71 | 158 | 8.0 | 16.0 | 0.00 | 0.00 | 0.00 | 60 | 1004.1 |
| 20260504211025 | 71 | 167 | 7.0 | 16.0 | 0.00 | 0.00 | 0.00 | 62 | 1004.3 |
| 20260504210004 | 69 | 164 | 5.0 | 12.0 | 0.00 | 0.00 | 0.00 | 64 | 1004.4 |
| 20260504205004 | 67 | 172 | 6.0 | 12.0 | 0.00 | 0.00 | 0.00 | 67 | 1004.9 |
| 20260504204025 | 66 | 165 | 6.0 | 13.0 | 0.00 | 0.00 | 0.00 | 68 | 1005.0 |
| 20260504203004 | 66 | 164 | 7.0 | 15.0 | 0.00 | 0.00 | 0.00 | 68 | 1005.1 |
| 20260504202025 | 66 | 173 | 5.0 | 15.0 | 0.00 | 0.00 | 0.00 | 67 | 1005.2 |
| 20260504201004 | 66 | 169 | 7.0 | 15.0 | 0.00 | 0.00 | 0.00 | 67 | 1004.8 |
| 20260504200004 | 67 | 197 | 8.0 | 20.0 | 0.00 | 0.00 | 0.00 | 67 | 1005.2 |
| 20260504195004 | 66 | 178 | 6.0 | 14.0 | 0.00 | 0.00 | 0.00 | 69 | 1005.3 |
| 20260504194004 | 64 | 161 | 4.0 | 8.0 | 0.00 | 0.00 | 0.00 | 71 | 1005.1 |
| 20260504193025 | 64 | 223 | 2.0 | 6.0 | 0.00 | 0.00 | 0.00 | 71 | 1005.5 |
| 20260504192003 | 64 | 202 | 3.0 | 10.0 | 0.00 | 0.00 | 0.00 | 68 | 1005.5 |
| 20260504191004 | 66 | 210 | 6.0 | 11.0 | 0.00 | 0.00 | 0.00 | 64 | 1005.7 |
| 20260504190004 | 67 | 188 | 5.0 | 13.0 | 0.00 | 0.00 | 0.00 | 59 | 1005.9 |
| 20260504185004 | 67 | 188 | 9.0 | 21.0 | 0.00 | 0.00 | 0.00 | 58 | 1005.6 |
| 20260504184025 | 67 | 192 | 6.0 | 14.0 | 0.00 | 0.00 | 0.00 | 60 | 1005.9 |
| 20260504183004 | 67 | 210 | 8.0 | 18.0 | 0.00 | 0.00 | 0.00 | 60 | 1006.0 |
| 20260504182004 | 68 | 211 | 9.0 | 21.0 | 0.00 | 0.00 | 0.00 | 60 | 1006.3 |
| 20260504181004 | 68 | 199 | 7.0 | 20.0 | 0.00 | 0.00 | 0.00 | 60 | 1006.3 |
| 20260504180004 | 69 | 234 | 10.0 | 21.0 | 0.00 | 0.00 | 0.00 | 60 | 1006.3 |
| 20260504175004 | 69 | 214 | 11.0 | 21.0 | 0.00 | 0.00 | 0.00 | 58 | 1006.1 |
| 20260504174004 | 70 | 206 | 9.0 | 22.0 | 0.00 | 0.00 | 0.00 | 57 | 1006.0 |
| 20260504173004 | 71 | 192 | 7.0 | 15.0 | 0.00 | 0.00 | 0.00 | 57 | 1005.8 |
| 20260504172004 | 71 | 190 | 9.0 | 17.0 | 0.00 | 0.00 | 0.00 | 54 | 1006.0 |
| 20260504171004 | 71 | 176 | 6.0 | 17.0 | 0.00 | 0.00 | 0.00 | 57 | 1005.5 |
| 20260504151004 | 69 | 183 | 6.0 | 15.0 | 0.00 | 0.00 | 0.00 | 60 | 1007.1 |